Wind_Speed
11 10 9 9 8 8 8 7 7 7 9 10 10 10 8 6 5 4 3 4 6 7 7 6 6 5 6 6 7 7 6 6 6 5 5 5 5 5 5 6 6 7 7 7 6 6 6 6 5
11 10 9 9 8 8 8 8 7 7 9 10 11 10 9 8 6 4 5 5 7 8 8 8 7 6 6 6 6 6 6 5 4 4 4 4 5 5 5 6 6 7 7 7 6 6 5 5 5
11 10 9 9 8 8 9 9 9 8 9 11 12 12 11 10 8 6 6 7 8 9 9 9 9 7 6 6 6 6 5 4 3 3 4 4 4 5 6 6 6 6 7 7 6 5 5 4 4
11 10 9 9 9 9 9 9 9 8 10 11 12 13 12 11 10 8 7 8 9 10 11 11 10 9 8 7 6 5 4 3 2 2 3 3 4 5 6 6 6 6 6 6 6 6 5 4 4
11 10 9 9 9 9 9 9 9 10 11 12 13 14 13 12 11 9 9 9 10 11 11 12 11 10 9 8 6 5 4 3 2 1 2 3 4 5 5 6 6 6 6 6 6 6 5 4 3
11 11 11 11 11 10 11 10 9 11 12 14 15 15 14 13 10 10 9 10 11 12 13 13 12 11 10 8 7 6 5 3 2 0 1 3 4 5 5 5 5 5 5 6 6 5 5 4 4
12 12 11 11 11 11 11 10 10 12 13 15 16 15 14 12 11 10 9 11 12 13 15 15 14 13 11 10 8 7 6 5 3 2 1 3 4 5 5 5 5 5 5 5 5 5 5 4 4
13 13 13 12 12 12 12 11 12 13 14 16 17 16 14 13 12 11 9 10 12 12 15 16 15 15 13 11 10 8 7 6 4 3 3 3 4 4 5 5 5 5 5 5 5 4 4 4 4
14 14 14 13 13 13 13 13 13 14 15 16 16 16 14 13 12 11 10 10 12 13 15 17 17 16 14 13 11 10 9 7 6 5 5 4 4 4 4 4 4 5 5 5 5 4 4 4 4
14 15 14 14 14 14 14 14 15 15 16 16 16 17 15 14 13 12 10 11 12 14 15 17 18 17 16 14 13 12 11 9 7 6 6 5 5 5 4 4 4 5 4 4 4 4 4 4 3
14 14 14 14 14 14 14 14 14 15 16 16 17 17 16 15 13 12 12 12 13 15 15 18 20 19 18 16 15 14 12 10 9 7 6 5 5 5 5 5 4 4 3 3 4 4 4 3 2
14 14 14 14 15 14 13 13 13 14 15 16 16 17 16 15 14 12 12 12 12 13 15 18 20 20 19 19 17 16 14 13 11 9 8 6 5 5 5 5 4 4 3 4 4 4 4 3 2
13 13 13 14 15 14 14 13 14 14 15 16 16 16 15 15 13 13 12 12 13 14 14 16 20 21 21 20 19 18 16 14 13 11 10 8 7 6 6 5 5 4 4 4 4 3 3 2 2
12 12 12 14 15 14 14 13 13 14 16 17 17 16 15 14 13 13 13 12 13 13 15 16 20 22 21 20 20 20 18 16 14 12 11 10 8 8 7 6 5 5 4 4 3 3 2 2 2
13 12 12 14 14 15 14 13 13 14 16 17 18 16 16 14 14 14 13 13 14 14 15 17 20 22 22 21 21 21 19 17 15 13 12 11 10 9 8 7 6 5 4 4 3 2 2 2 2
14 13 13 14 14 14 14 13 13 15 15 17 17 17 16 14 14 13 13 13 14 16 17 20 22 22 23 23 22 22 20 18 16 15 13 13 12 10 9 8 7 5 4 4 3 2 2 1 1
16 15 14 14 14 14 14 13 14 14 15 16 17 16 16 15 14 13 12 13 14 17 18 20 23 22 23 24 23 22 21 20 18 16 15 14 13 11 9 8 7 6 5 4 4 3 1 0 1
16 16 15 15 15 14 14 13 14 14 15 16 16 16 15 15 13 12 11 12 13 15 18 20 23 23 23 24 24 23 22 21 19 17 17 16 15 13 11 10 8 6 6 5 4 3 2 1 0
17 17 16 15 16 15 15 14 14 15 16 17 17 16 15 14 12 11 9 10 11 14 17 21 23 23 23 23 23 23 22 21 20 20 18 16 15 14 12 11 9 8 7 5 4 3 2 2 1
18 17 17 16 16 16 15 15 15 15 16 17 16 15 15 14 12 11 9 10 11 12 15 19 22 22 22 23 24 24 23 21 21 21 20 17 16 15 14 12 11 9 7 6 5 4 3 2 1
19 18 18 17 16 16 16 14 14 14 14 15 15 15 14 12 11 9 8 7 8 11 14 16 20 22 22 23 24 24 24 23 23 22 20 18 17 16 15 14 12 11 9 8 6 5 4 3 3
19 19 19 18 17 16 16 14 12 13 13 14 14 13 13 10 9 8 7 6 7 9 13 15 19 21 22 23 24 24 24 22 22 22 21 19 18 17 16 15 14 12 10 9 7 6 5 5 4
20 20 20 18 17 16 15 14 11 11 12 13 14 12 11 9 7 7 6 6 5 7 11 14 16 20 22 23 23 23 23 23 22 23 22 21 19 18 17 16 15 13 12 11 9 8 7 6 6
20 21 20 19 18 15 14 13 10 11 11 12 13 12 10 9 8 7 6 5 4 6 9 13 15 18 21 22 22 22 23 22 21 23 22 21 19 18 17 16 15 14 13 12 11 10 9 8 8
21 21 21 19 17 15 13 13 11 11 11 11 11 10 9 9 8 8 6 5 4 4 8 12 15 17 20 22 23 23 22 21 21 22 22 21 20 19 18 18 16 15 15 14 13 12 11 10 10
21 21 21 21 19 16 14 12 10 10 10 10 10 9 8 8 8 7 6 5 3 3 6 11 14 18 19 20 22 23 22 22 22 23 22 21 21 20 19 18 17 17 16 15 15 14 13 13 12
22 21 21 22 20 17 14 11 10 10 10 10 9 8 7 7 7 6 5 4 3 3 5 9 12 16 18 19 21 22 22 22 22 23 22 22 21 20 20 19 18 18 18 17 17 16 16 15 15
22 22 22 22 21 18 14 12 11 10 10 9 8 7 6 6 5 4 4 3 2 3 5 7 10 14 16 17 19 20 21 21 22 22 22 21 21 21 21 20 19 19 19 19 19 18 18 18 18
23 24 24 23 22 20 17 12 11 10 9 9 9 8 8 7 5 4 3 3 2 2 4 6 9 12 14 15 17 18 19 19 20 21 22 21 20 21 21 20 20 20 20 20 21 20 21 21 21
25 26 25 24 23 21 18 13 11 11 10 9 9 9 9 8 7 6 5 4 4 4 5 6 8 10 12 14 15 16 19 19 19 20 20 20 20 20 21 21 21 22 22 22 22 23 23 23 23
Wind_Direction
342 339 334 330 329 339 347 356 358 357 5 10 11 14 13 358 333 298 266 249 229 217 211 212 204 185 165 146 130 116 102 91 80 67 58 52 43 35 32 27 24 24 26 27 30 32 32 35 40
336 334 329 324 322 330 340 345 348 356 2 6 6 2 356 346 328 305 267 252 232 223 218 217 208 192 176 158 140 126 112 98 86 71 54 45 37 27 24 21 20 21 21 24 28 30 31 32 36
329 326 322 318 318 323 331 338 340 354 358 0 359 354 353 346 330 308 277 258 237 228 223 220 212 198 186 170 154 138 123 107 90 68 47 35 27 19 17 16 15 17 17 19 20 22 23 25 29
323 319 313 311 314 320 323 331 337 350 356 356 355 350 346 339 327 307 284 260 242 231 223 220 215 204 197 184 170 157 143 128 101 64 40 23 15 11 10 9 9 12 14 14 14 13 13 14 20
315 308 304 305 308 316 323 326 332 341 350 353 349 345 339 330 316 302 277 259 240 228 223 219 216 211 202 193 185 175 168 157 133 63 24 6 4 2 2 3 2 4 5 7 8 5 2 4 8
304 302 297 299 304 311 319 327 331 338 347 349 345 338 332 324 314 305 279 252 241 229 220 219 219 218 207 202 199 192 189 185 184 210 350 347 350 349 354 357 354 355 358 0 2 3 360 360 1
296 297 293 296 297 301 312 320 325 338 344 342 339 335 330 321 312 302 278 253 244 235 222 219 219 214 210 207 205 204 203 203 209 232 296 329 336 333 338 343 344 347 350 353 356 356 355 357 359
292 291 290 291 291 297 305 313 323 333 336 333 332 330 325 318 309 301 279 255 246 238 226 220 217 213 210 208 208 210 212 217 225 240 268 299 317 319 320 325 330 334 340 343 344 344 342 343 343
288 286 288 287 287 295 301 307 318 326 328 326 325 323 318 312 305 298 278 261 252 240 229 221 215 212 212 208 208 211 214 218 228 246 263 276 294 301 305 314 320 324 326 330 335 334 329 333 330
285 285 287 288 290 294 299 305 314 321 323 324 322 320 313 308 304 295 282 266 254 236 230 224 215 212 213 210 209 210 214 220 229 242 256 263 276 284 292 303 313 319 324 330 338 338 332 327 322
283 281 286 286 288 292 297 305 315 320 322 321 319 316 309 306 301 293 282 268 250 234 229 224 217 213 212 211 211 212 216 221 228 237 248 254 264 273 280 291 302 315 326 335 342 342 336 332 323
280 283 282 280 285 289 295 304 314 318 319 316 315 314 306 303 299 293 283 271 248 236 230 223 217 211 211 211 211 212 217 221 227 233 243 251 254 263 274 280 290 307 324 332 337 339 333 334 329
277 279 278 278 281 286 292 301 310 314 318 316 317 317 309 304 299 288 277 263 241 234 230 223 213 209 211 212 214 214 218 222 227 233 241 243 245 254 266 267 278 292 310 320 329 336 339 343 338
271 272 270 272 276 280 288 299 307 317 319 318 319 319 313 308 304 295 279 256 239 233 225 221 215 210 210 210 214 215 218 223 226 233 238 237 240 249 256 257 264 273 293 307 317 322 326 335 344
262 262 262 264 270 277 286 295 303 311 317 319 318 319 316 307 299 294 283 262 242 234 224 216 211 207 207 211 215 216 218 219 224 230 234 233 236 243 248 250 246 255 272 294 305 314 332 354 9
253 253 253 259 266 275 283 291 300 308 315 319 319 317 314 305 298 291 278 263 246 230 221 216 209 207 209 211 213 216 218 219 224 228 231 230 233 235 235 241 242 246 260 273 287 303 337 12 36
252 250 253 254 263 271 282 289 299 310 314 317 316 317 316 309 303 295 278 264 248 227 220 219 208 206 208 211 215 216 218 220 222 225 225 225 228 227 227 233 237 242 246 253 267 278 268 80 66
248 251 253 253 258 267 277 288 300 309 313 315 315 313 313 312 308 302 284 265 249 230 219 218 214 213 212 211 213 216 217 218 219 222 223 224 224 223 222 223 227 229 233 243 248 252 238 215 91
247 251 253 253 256 266 277 289 300 308 312 315 318 313 309 311 309 303 284 264 252 230 219 218 214 212 212 212 215 215 214 216 215 217 218 219 221 221 218 217 219 222 228 235 231 231 229 217 186
247 252 256 255 259 268 279 289 300 308 310 313 319 317 312 312 307 298 285 272 254 228 216 216 211 212 212 214 213 209 208 212 212 213 215 217 219 220 216 214 215 218 223 223 224 222 214 211 202
248 251 256 260 263 271 280 292 302 308 310 311 313 314 316 317 312 300 291 279 251 229 219 211 210 209 213 214 213 209 208 211 212 213 213 214 217 217 215 213 215 217 218 219 224 224 223 223 220
245 252 257 262 268 273 285 294 303 311 315 314 317 317 317 314 314 305 297 276 251 231 220 212 206 208 209 210 210 208 208 210 212 213 212 212 214 214 213 215 217 218 219 222 225 226 226 227 229
246 251 257 263 268 276 287 294 305 309 312 314 318 317 315 311 305 306 307 293 258 233 223 212 206 207 206 207 207 209 208 209 211 210 208 210 214 214 214 216 217 218 222 224 225 228 230 233 239
248 250 257 262 270 275 286 295 305 307 309 310 313 313 310 307 296 293 294 286 262 241 224 211 202 200 199 202 206 206 206 206 208 208 208 211 213 213 213 214 217 221 226 228 228 230 233 236 242
248 252 257 262 268 272 279 287 301 307 305 305 308 308 306 304 306 296 287 278 271 246 216 204 197 195 195 198 203 204 204 206 208 210 210 211 212 214 214 216 220 224 229 230 230 234 235 238 244
247 253 256 264 268 269 273 281 296 303 301 300 302 302 306 303 305 300 285 267 255 232 207 194 193 191 193 198 201 202 204 205 207 208 208 210 213 215 216 219 222 226 230 231 234 238 239 242 247
242 246 254 264 267 268 270 273 283 295 300 298 300 302 307 309 303 299 290 261 246 213 191 190 194 193 195 199 200 201 203 205 207 208 209 212 214 215 218 223 227 230 233 237 240 243 245 248 251
243 244 250 258 263 266 268 272 280 285 297 298 294 298 307 314 304 299 298 273 254 206 190 188 192 194 193 196 198 201 204 207 210 208 208 212 216 219 224 229 232 234 238 242 243 246 249 252 255
243 244 249 254 258 265 268 271 273 279 290 287 282 279 289 293 282 282 289 270 241 218 192 183 187 193 195 196 197 202 206 208 209 210 213 216 221 225 229 233 236 240 243 246 247 250 253 255 258
245 246 249 253 255 261 267 268 266 272 277 279 281 280 279 270 271 275 271 258 241 227 208 195 192 194 197 200 203 207 209 212 214 216 219 222 226 231 235 238 241 245 247 249 251 254 256 258 260
Height
5878 5877 5876 5876 5876 5876 5875 5875 5874 5873 5873 5872 5872 5871 5872 5872 5873 5875 5874 5873 5875 5876 5877 5878 5879 5880 5881 5881 5882 5883 5884 5885 5886 5887 5887 5888 5888 5889 5889 5889 5889 5889 5889 5888 5888 5888 5888 5888 5888
5877 5876 5876 5876 5875 5875 5875 5874 5874 5873 5872 5871 5871 5870 5870 5870 5871 5871 5871 5872 5873 5875 5876 5877 5879 5879 5880 5881 5882 5883 5884 5885 5886 5886 5887 5888 5888 5889 5889 5889 5889 5889 5889 5889 5889 5889 5889 5889 5889
5877 5876 5876 5875 5875 5875 5875 5874 5873 5873 5872 5871 5870 5869 5868 5869 5869 5870 5870 5871 5872 5874 5875 5876 5878 5878 5879 5880 5881 5882 5883 5885 5886 5886 5887 5888 5888 5888 5889 5889 5889 5889 5889 5889 5889 5889 5889 5889 5889
5876 5876 5876 5875 5874 5874 5874 5873 5873 5872 5871 5870 5869 5868 5867 5868 5867 5868 5868 5869 5871 5872 5874 5875 5876 5877 5878 5880 5881 5882 5883 5884 5885 5886 5887 5887 5888 5888 5888 5889 5889 5889 5889 5889 5889 5889 5889 5889 5889
5876 5875 5875 5874 5873 5873 5873 5872 5872 5871 5870 5868 5867 5867 5866 5866 5865 5865 5866 5867 5869 5870 5872 5874 5875 5876 5877 5879 5880 5881 5882 5884 5885 5885 5886 5887 5887 5888 5888 5888 5889 5889 5889 5889 5889 5889 5889 5889 5889
5875 5874 5874 5872 5872 5872 5872 5871 5870 5869 5868 5867 5866 5865 5864 5864 5863 5863 5864 5865 5867 5868 5870 5872 5873 5875 5877 5878 5880 5881 5882 5883 5884 5885 5886 5886 5887 5887 5888 5888 5888 5889 5889 5889 5889 5889 5888 5889 5889
5874 5873 5872 5871 5871 5870 5870 5869 5868 5867 5866 5865 5865 5864 5863 5862 5861 5861 5861 5862 5864 5866 5868 5870 5872 5873 5875 5877 5879 5880 5881 5883 5883 5884 5885 5886 5886 5887 5887 5888 5888 5889 5889 5889 5889 5889 5888 5888 5888
5872 5872 5870 5870 5869 5869 5869 5867 5866 5865 5864 5864 5863 5862 5861 5860 5859 5858 5858 5859 5861 5863 5865 5867 5869 5872 5874 5876 5877 5879 5881 5882 5883 5884 5884 5885 5886 5886 5887 5887 5888 5888 5888 5889 5888 5888 5888 5888 5888
5870 5871 5869 5868 5868 5868 5867 5866 5865 5864 5862 5861 5860 5860 5858 5857 5856 5855 5855 5857 5858 5860 5862 5864 5867 5869 5871 5874 5876 5878 5879 5881 5882 5883 5884 5884 5885 5885 5886 5886 5887 5887 5888 5888 5888 5888 5888 5887 5887
5869 5868 5867 5867 5867 5866 5865 5864 5863 5862 5860 5859 5858 5857 5855 5854 5853 5853 5853 5854 5855 5856 5858 5861 5864 5866 5869 5872 5874 5876 5878 5880 5881 5882 5883 5883 5884 5885 5885 5886 5886 5887 5887 5887 5887 5887 5887 5887 5887
5866 5866 5866 5865 5865 5864 5864 5863 5861 5860 5858 5857 5855 5854 5852 5851 5850 5850 5850 5851 5852 5853 5855 5858 5860 5863 5866 5869 5872 5874 5876 5878 5879 5881 5881 5882 5883 5884 5884 5885 5885 5886 5886 5887 5887 5887 5886 5886 5886
5864 5864 5864 5863 5863 5862 5862 5861 5860 5857 5856 5854 5852 5850 5849 5848 5847 5847 5847 5847 5848 5850 5852 5854 5856 5859 5863 5866 5869 5872 5874 5876 5878 5879 5880 5881 5882 5883 5884 5884 5884 5885 5885 5886 5886 5886 5886 5886 5886
5862 5862 5862 5861 5861 5860 5859 5859 5857 5855 5853 5851 5849 5847 5846 5844 5843 5843 5843 5843 5844 5846 5848 5850 5853 5856 5860 5863 5867 5870 5872 5874 5876 5877 5879 5880 5881 5882 5882 5883 5884 5884 5885 5885 5886 5886 5885 5885 5885
5859 5860 5860 5859 5858 5858 5857 5856 5855 5853 5851 5849 5847 5845 5843 5841 5840 5839 5838 5839 5840 5842 5844 5847 5849 5852 5856 5860 5864 5867 5869 5872 5874 5875 5877 5878 5879 5880 5881 5882 5883 5883 5884 5884 5885 5885 5885 5885 5885
5857 5858 5858 5857 5856 5855 5855 5855 5853 5851 5849 5847 5844 5842 5840 5837 5836 5835 5834 5834 5836 5838 5840 5842 5845 5849 5853 5857 5861 5864 5867 5869 5872 5874 5875 5877 5878 5879 5880 5881 5882 5883 5883 5884 5884 5885 5885 5885 5884
5854 5855 5855 5855 5854 5853 5854 5853 5851 5849 5847 5844 5841 5839 5836 5834 5832 5831 5830 5830 5831 5832 5835 5838 5842 5846 5850 5854 5857 5861 5864 5867 5869 5871 5873 5875 5876 5877 5879 5880 5881 5882 5882 5883 5884 5884 5884 5884 5884
5850 5851 5852 5853 5852 5851 5851 5850 5849 5846 5844 5842 5839 5836 5833 5831 5829 5827 5826 5825 5826 5828 5831 5835 5838 5842 5846 5850 5854 5857 5861 5864 5867 5869 5871 5872 5874 5876 5877 5879 5880 5880 5881 5882 5883 5883 5883 5884 5884
5847 5848 5849 5850 5849 5849 5848 5847 5846 5844 5841 5839 5836 5834 5831 5828 5826 5824 5822 5822 5822 5824 5827 5831 5834 5839 5842 5846 5850 5854 5857 5861 5864 5866 5868 5870 5872 5874 5875 5877 5878 5879 5881 5881 5882 5883 5883 5883 5884
5844 5845 5846 5847 5846 5846 5845 5844 5843 5840 5838 5836 5834 5831 5829 5826 5823 5821 5820 5819 5819 5821 5823 5826 5830 5835 5838 5842 5846 5850 5854 5858 5861 5863 5866 5868 5870 5872 5874 5876 5877 5878 5880 5880 5881 5882 5883 5883 5883
5841 5842 5843 5844 5843 5842 5842 5841 5840 5837 5836 5833 5831 5829 5826 5824 5821 5819 5818 5817 5817 5818 5820 5822 5826 5830 5834 5838 5843 5846 5850 5854 5857 5860 5863 5865 5868 5870 5872 5874 5876 5877 5878 5879 5881 5881 5882 5882 5883
5838 5839 5840 5840 5840 5839 5839 5839 5837 5835 5833 5831 5829 5826 5824 5822 5820 5817 5816 5815 5816 5817 5818 5820 5822 5826 5830 5834 5839 5843 5846 5850 5854 5857 5860 5863 5866 5868 5870 5872 5874 5876 5877 5878 5880 5881 5881 5882 5882
5834 5835 5836 5836 5837 5836 5837 5835 5835 5832 5830 5828 5826 5824 5822 5820 5818 5817 5815 5814 5815 5815 5816 5817 5819 5823 5826 5831 5835 5839 5843 5847 5851 5854 5858 5860 5863 5866 5868 5870 5873 5874 5876 5877 5878 5879 5880 5881 5881
5831 5832 5833 5833 5833 5834 5834 5833 5833 5831 5829 5827 5825 5823 5821 5820 5818 5817 5815 5813 5813 5814 5814 5815 5816 5819 5824 5828 5832 5837 5841 5844 5847 5851 5855 5858 5861 5863 5866 5868 5871 5873 5874 5876 5877 5878 5879 5879 5880
5828 5829 5830 5830 5831 5832 5832 5831 5831 5829 5827 5825 5824 5822 5821 5819 5818 5816 5815 5813 5813 5813 5813 5813 5815 5817 5821 5825 5830 5834 5838 5841 5844 5848 5852 5855 5858 5861 5864 5866 5868 5870 5872 5874 5875 5876 5877 5878 5878
5824 5826 5827 5827 5828 5829 5829 5828 5829 5827 5825 5824 5822 5821 5820 5819 5817 5816 5814 5813 5812 5811 5811 5812 5813 5816 5819 5824 5828 5832 5836 5839 5843 5846 5850 5853 5856 5859 5861 5864 5866 5868 5870 5872 5873 5874 5875 5876 5877
5821 5822 5824 5824 5825 5826 5826 5826 5827 5825 5823 5822 5821 5820 5819 5818 5817 5816 5815 5813 5812 5811 5810 5811 5813 5816 5819 5823 5826 5830 5834 5837 5841 5844 5848 5851 5853 5856 5859 5861 5864 5865 5867 5869 5870 5872 5873 5874 5874
5816 5818 5819 5820 5821 5822 5823 5824 5824 5823 5821 5820 5820 5819 5819 5817 5816 5816 5814 5813 5812 5811 5811 5812 5813 5816 5819 5822 5825 5829 5832 5835 5839 5842 5845 5848 5851 5854 5856 5859 5861 5862 5864 5866 5867 5869 5870 5871 5871
5812 5814 5815 5816 5817 5818 5820 5821 5821 5820 5819 5819 5819 5818 5818 5817 5816 5816 5814 5813 5813 5813 5812 5813 5814 5816 5819 5822 5824 5828 5831 5833 5837 5839 5842 5845 5848 5851 5853 5856 5858 5859 5861 5862 5864 5865 5866 5867 5868
5808 5809 5811 5812 5814 5815 5816 5820 5819 5818 5817 5817 5817 5817 5817 5817 5816 5816 5815 5814 5814 5814 5814 5814 5815 5817 5819 5822 5824 5826 5829 5832 5835 5838 5840 5843 5845 5848 5850 5852 5854 5856 5857 5858 5859 5861 5862 5863 5863
5802 5804 5807 5809 5810 5811 5813 5818 5816 5816 5815 5815 5815 5815 5815 5815 5815 5815 5815 5814 5814 5815 5815 5815 5816 5818 5820 5822 5824 5826 5828 5831 5833 5836 5838 5840 5842 5845 5847 5848 5850 5851 5853 5854 5855 5856 5857 5857 5858